Weather History for Kenosha, WI

Change the Weather History Date:

Friday, January 11, 2013

  Actual Average Record
Temperature  
Mean Temperature 46 °F -  
Max Temperature 53 °F 28 °F 54 °F (2012)
Min Temperature 39 °F 10 °F -14 °F (1979)
Degree Days  
Heating Degree Days 19    
Moisture  
Dew Point 43 °F    
Average Humidity 90    
Maximum Humidity 100    
Minimum Humidity 77    
Precipitation  
Precipitation 0.32 in - - ()
Sea Level Pressure  
Sea Level Pressure 29.72 in    
Wind  
Wind Speed 9 mph (South)    
Max Wind Speed 18 mph    
Max Gust Speed 28 mph    
Visibility 5 miles    
Events Fog , Rain    
Averages and records for this station are not official NWS values.
T = Trace of Precipitation, MM = Missing Value Source: NWS Daily Summary

Daily Weather History Graph

Daily Weather History Graph

Search for Another Location

Airport:

Trip Planner

Search our weather history database for the weather conditions in past years. The results will help you decide how hot, cold, wet, or windy it might be!

Date:

Astronomy

Jan. 11, 2013 Rise Set
Actual Time 7:20 AM CST 4:39 PM CST
Civil Twilight 6:49 AM CST 5:10 PM CST
Nautical Twilight 6:14 AM CST 5:45 PM CST
Astronomical Twilight 5:40 AM CST 6:19 PM CST
Moon 6:52 AM CST (1/11) 4:58 PM CST (1/11)
Length of Visible Light 10h 21m
Length of Day
9h 18m
Waning Crescent, 0% of the Moon is Illuminated
Jan 11
Waning Crescent
Jan 11
New
Jan 18
First Quarter
Jan 26
Full
Feb 3
Last Quarter

Hourly Weather History & Observations

Time (CST) Temp. Windchill Dew Point Humidity Pressure Visibility Wind Dir Wind Speed Gust Speed Precip Events Conditions
12:10 AM 39.2 °F 31.6 °F 37.4 °F 93% 29.88 in 4.0 mi SSE 12.7 mph 23.0 mph 0.01 in Rain Light Rain
12:53 AM 39.0 °F 33.4 °F 37.0 °F 93% 29.87 in 3.0 mi SE 8.1 mph - 0.03 in Rain Light Rain
1:35 AM 39.2 °F 34.2 °F 37.4 °F 93% 29.83 in 2.5 mi SE 6.9 mph - 0.02 in Rain Light Rain
1:45 AM 39.2 °F 34.2 °F 37.4 °F 93% 29.82 in 3.0 mi SE 6.9 mph - 0.02 in Rain Light Rain
1:53 AM 39.9 °F 35.1 °F 37.9 °F 93% 29.83 in 3.0 mi SE 6.9 mph - 0.03 in Rain Light Rain
2:43 AM 41.0 °F 38.0 °F 39.2 °F 93% 29.78 in 1.5 mi SE 4.6 mph - 0.00 in Rain Light Rain
2:53 AM 41.0 °F 37.1 °F 39.9 °F 96% 29.80 in 1.0 mi SSE 5.8 mph - 0.06 in Rain Heavy Rain
3:28 AM 42.8 °F 38.6 °F 39.2 °F 87% 29.75 in 2.5 mi SSE 6.9 mph - 0.19 in Rain Rain
3:35 AM 42.8 °F 39.3 °F 39.2 °F 87% 29.74 in 5.0 mi SSE 5.8 mph - 0.19 in Rain Light Rain
3:53 AM 42.1 °F 37.7 °F 41.0 °F 96% 29.73 in 3.0 mi SE 6.9 mph - 0.19 in   Overcast
3:59 AM 42.8 °F 38.6 °F 41.0 °F 93% 29.71 in 1.8 mi SE 6.9 mph - N/A   Overcast
4:13 AM 42.8 °F 39.3 °F 41.0 °F 93% 29.70 in 0.5 mi SE 5.8 mph - N/A Fog Fog
4:36 AM 42.8 °F 37.5 °F 41.0 °F 93% 29.67 in 0.2 mi SE 9.2 mph - N/A Fog Fog
4:53 AM 43.0 °F 38.8 °F 42.1 °F 97% 29.68 in 0.2 mi ESE 6.9 mph - N/A Fog Fog
5:02 AM 42.8 °F 38.6 °F 42.8 °F 100% 29.65 in 0.2 mi ESE 6.9 mph - N/A Fog Fog
5:53 AM 42.1 °F 40.2 °F 41.0 °F 96% 29.69 in 0.2 mi SW 3.5 mph - N/A Fog Fog
6:53 AM 41.0 °F - 39.0 °F 93% 29.70 in 0.2 mi Calm Calm - N/A Fog Fog
7:06 AM 41.0 °F 39.0 °F 39.2 °F 93% 29.68 in 0.2 mi West 3.5 mph - N/A Fog Fog
7:53 AM 45.0 °F 40.6 °F 44.1 °F 97% 29.70 in 0.2 mi SSW 8.1 mph - 0.01 in Fog Fog
8:15 AM 46.4 °F 41.5 °F 44.6 °F 93% 29.69 in 0.5 mi WSW 10.4 mph - N/A Fog Fog
8:34 AM 48.2 °F - 46.4 °F 93% 29.69 in 10.0 mi West 12.7 mph - N/A   Overcast
8:53 AM 46.9 °F - 46.0 °F 97% 29.70 in 10.0 mi West 11.5 mph - N/A   Overcast
9:53 AM 46.9 °F - 45.0 °F 93% 29.73 in 10.0 mi WSW 12.7 mph - N/A   Overcast
10:53 AM 48.0 °F - 45.0 °F 89% 29.73 in 10.0 mi SW 11.5 mph 19.6 mph N/A   Overcast
11:49 AM 46.4 °F 41.1 °F 44.6 °F 93% 29.71 in 1.5 mi SW 11.5 mph 24.2 mph N/A   Overcast
11:53 AM 46.9 °F - 44.1 °F 90% 29.72 in 1.5 mi WSW 13.8 mph - N/A   Overcast
12:23 PM 46.4 °F 40.1 °F 44.6 °F 93% 29.71 in 3.0 mi SW 15.0 mph 21.9 mph N/A   Overcast
12:45 PM 46.4 °F 39.8 °F 44.6 °F 93% 29.72 in 2.5 mi SW 16.1 mph 21.9 mph N/A   Overcast
12:53 PM 46.9 °F - 44.1 °F 90% 29.73 in 3.0 mi SW 13.8 mph 23.0 mph N/A   Overcast
2:00 PM 48.2 °F - 44.6 °F 87% 29.71 in 10.0 mi SW 13.8 mph 19.6 mph N/A   Overcast
2:53 PM 48.0 °F - 45.0 °F 89% 29.74 in 7.0 mi SSW 10.4 mph - N/A   Overcast
3:20 PM 48.2 °F - 44.6 °F 87% 29.71 in 8.0 mi South 8.1 mph - N/A   Overcast
3:53 PM 48.9 °F - 45.0 °F 86% 29.72 in 7.0 mi South 9.2 mph - N/A   Overcast
4:53 PM 50.0 °F - 45.0 °F 83% 29.72 in 9.0 mi South 13.8 mph 19.6 mph N/A   Overcast
5:44 PM 48.2 °F - 44.6 °F 87% 29.69 in 9.0 mi South 11.5 mph - N/A   Scattered Clouds
5:53 PM 48.9 °F - 45.0 °F 86% 29.71 in 9.0 mi South 11.5 mph - N/A   Partly Cloudy
6:53 PM 50.0 °F - 46.0 °F 86% 29.72 in 8.0 mi South 12.7 mph - N/A   Partly Cloudy
7:00 PM 50.0 °F - 46.4 °F 87% 29.70 in 8.0 mi South 15.0 mph - N/A   Mostly Cloudy
7:53 PM 50.0 °F - 46.0 °F 86% 29.70 in 10.0 mi South 13.8 mph - N/A   Clear
8:53 PM 51.1 °F - 46.0 °F 83% 29.68 in 10.0 mi SSW 10.4 mph - N/A   Clear
9:53 PM 53.1 °F - 46.0 °F 77% 29.68 in 10.0 mi SSW 18.4 mph 27.6 mph N/A   Clear
10:53 PM 52.0 °F - 45.0 °F 77% 29.67 in 10.0 mi SSW 16.1 mph 24.2 mph N/A   Clear
11:53 PM 52.0 °F - 45.0 °F 77% 29.67 in 10.0 mi SSW 18.4 mph 27.6 mph N/A   Clear